Find STARLINK-36978

NORAD ID: 70593 Constellation: starlink operational
LEOCIRCULAR

实时位置

正在加载3D地球...

关于 STARLINK-36978

正在加载描述...

即将过境

Passes for default location (London). Set your location on the main map for personalized predictions.

高度历史

Loading altitude history...

两行轨道根数

1 70593C 26099K 26122.88034722 -.00322780 00000+0 -39378-3 0 1221
2 70593 53.1635 22.6106 0005162 288.2830 127.0091 16.07451964 15
Epoch: May 2, 2026 • Age: 31 hours